Time,TemperatureF,DewpointF,PressureIn,WindDirection,WindDirectionDegrees,WindSpeedMPH,WindSpeedGustMPH,Humidity,HourlyPrecipIn,Conditions,Clouds,dailyrainin,SoftwareType,DateUTC
2013-02-09 00:06:00,30.5,24.0,29.98,South,172,6.0,13.0,76,0.00,,,0.02,weatherlink.com 1.10,2013-02-09 05:06:00,
2013-02-09 00:21:00,32.4,21.0,29.98,South,172,3.0,16.0,64,0.00,,,0.02,weatherlink.com 1.10,2013-02-09 05:21:00,
2013-02-09 00:52:00,32.1,21.0,29.98,South,183,1.0,9.0,63,0.00,,,0.00,weatherlink.com 1.10,2013-02-09 05:52:00,
2013-02-09 01:06:00,32.7,20.0,29.98,South,180,2.0,5.0,59,0.00,,,0.00,weatherlink.com 1.10,2013-02-09 06:06:00,
2013-02-09 01:21:00,32.5,20.0,29.97,South,177,2.0,6.0,60,0.00,,,0.00,weatherlink.com 1.10,2013-02-09 06:21:00,
2013-02-09 01:36:00,32.1,20.0,29.98,South,177,0.0,4.0,62,0.00,,,0.00,weatherlink.com 1.10,2013-02-09 06:36:00,
2013-02-09 01:52:00,32.4,20.0,29.98,South,176,0.0,4.0,60,0.00,,,0.00,weatherlink.com 1.10,2013-02-09 06:52:00,
2013-02-09 02:07:00,31.9,20.0,29.99,South,175,1.0,6.0,62,0.00,,,0.00,weatherlink.com 1.10,2013-02-09 07:07:00,
2013-02-09 02:22:00,31.1,20.0,30.00,South,177,2.0,7.0,63,0.00,,,0.00,weatherlink.com 1.10,2013-02-09 07:22:00,
2013-02-09 02:36:00,31.0,20.0,30.00,South,181,1.0,5.0,63,0.00,,,0.00,weatherlink.com 1.10,2013-02-09 07:36:00,
2013-02-09 02:51:00,30.3,20.0,30.00,South,174,1.0,8.0,67,0.00,,,0.00,weatherlink.com 1.10,2013-02-09 07:51:00,
2013-02-09 03:07:00,29.8,20.0,30.01,South,176,0.0,9.0,67,0.00,,,0.00,weatherlink.com 1.10,2013-02-09 08:07:00,
2013-02-09 03:22:00,29.4,20.0,30.00,South,171,5.0,10.0,69,0.00,,,0.00,weatherlink.com 1.10,2013-02-09 08:22:00,
2013-02-09 03:37:00,29.3,20.0,30.01,South,172,2.0,9.0,68,0.00,,,0.00,weatherlink.com 1.10,2013-02-09 08:37:00,
2013-02-09 03:52:00,29.7,20.0,30.02,South,170,1.0,10.0,66,0.00,,,0.00,weatherlink.com 1.10,2013-02-09 08:52:00,
2013-02-09 04:07:00,29.8,19.0,30.02,South,172,0.0,10.0,65,0.00,,,0.00,weatherlink.com 1.10,2013-02-09 09:07:00,
2013-02-09 04:22:00,29.8,19.0,30.02,SSE,167,5.0,9.0,64,0.00,,,0.00,weatherlink.com 1.10,2013-02-09 09:22:00,
2013-02-09 04:37:00,29.7,19.0,30.03,SSE,164,9.0,11.0,65,0.00,,,0.00,weatherlink.com 1.10,2013-02-09 09:37:00,
2013-02-09 04:52:00,29.5,19.0,30.03,South,176,6.0,14.0,65,0.00,,,0.00,weatherlink.com 1.10,2013-02-09 09:52:00,
2013-02-09 05:07:00,29.3,19.0,30.04,South,169,2.0,15.0,65,0.00,,,0.00,weatherlink.com 1.10,2013-02-09 10:07:00,
2013-02-09 05:22:00,29.7,18.0,30.04,South,169,3.0,9.0,63,0.00,,,0.00,weatherlink.com 1.10,2013-02-09 10:22:00,
2013-02-09 05:37:00,30.1,18.0,30.05,South,171,3.0,8.0,62,0.00,,,0.00,weatherlink.com 1.10,2013-02-09 10:37:00,
2013-02-09 05:52:00,29.6,19.0,30.05,South,169,3.0,15.0,64,0.00,,,0.00,weatherlink.com 1.10,2013-02-09 10:52:00,
2013-02-09 06:22:00,30.9,17.0,30.06,South,169,3.0,8.0,57,0.00,,,0.00,weatherlink.com 1.10,2013-02-09 11:22:00,
2013-02-09 06:37:00,31.4,16.0,30.07,South,172,3.0,8.0,54,0.00,,,0.00,weatherlink.com 1.10,2013-02-09 11:37:00,
2013-02-09 06:52:00,31.4,16.0,30.08,SSE,165,2.0,8.0,54,0.00,,,0.00,weatherlink.com 1.10,2013-02-09 11:52:00,
2013-02-09 07:07:00,31.0,16.0,30.08,South,171,1.0,6.0,55,0.00,,,0.00,weatherlink.com 1.10,2013-02-09 12:07:00,
2013-02-09 07:22:00,30.8,16.0,30.09,South,171,2.0,8.0,55,0.00,,,0.00,weatherlink.com 1.10,2013-02-09 12:22:00,
2013-02-09 07:52:00,31.7,15.0,30.11,South,169,2.0,7.0,51,0.00,,,0.00,weatherlink.com 1.10,2013-02-09 12:52:00,
2013-02-09 08:07:00,32.4,15.0,30.11,South,169,1.0,6.0,49,0.00,,,0.00,weatherlink.com 1.10,2013-02-09 13:07:00,
2013-02-09 08:22:00,32.4,17.0,30.13,South,171,0.0,3.0,53,0.00,,,0.00,weatherlink.com 1.10,2013-02-09 13:22:00,
2013-02-09 08:37:00,32.0,19.0,30.13,South,170,0.0,3.0,58,0.00,,,0.00,weatherlink.com 1.10,2013-02-09 13:37:00,
2013-02-09 08:52:00,31.6,19.0,30.14,South,170,0.0,3.0,59,0.00,,,0.00,weatherlink.com 1.10,2013-02-09 13:52:00,
2013-02-09 09:06:00,32.8,20.0,30.14,South,170,0.0,2.0,59,0.00,,,0.00,weatherlink.com 1.10,2013-02-09 14:06:00,
2013-02-09 09:23:00,33.4,21.0,30.15,South,170,0.0,3.0,61,0.00,,,0.00,weatherlink.com 1.10,2013-02-09 14:23:00,
2013-02-09 09:36:00,35.4,19.0,30.15,South,170,0.0,1.0,52,0.00,,,0.00,weatherlink.com 1.10,2013-02-09 14:36:00,
2013-02-09 09:52:00,37.2,19.0,30.16,South,170,0.0,0.0,48,0.00,,,0.00,weatherlink.com 1.10,2013-02-09 14:52:00,
2013-02-09 10:07:00,39.1,21.0,30.17,South,170,0.0,1.0,48,0.00,,,0.00,weatherlink.com 1.10,2013-02-09 15:07:00,
2013-02-09 10:22:00,39.8,22.0,30.17,South,170,0.0,2.0,49,0.00,,,0.00,weatherlink.com 1.10,2013-02-09 15:22:00,
2013-02-09 10:37:00,40.3,23.0,30.17,South,170,0.0,2.0,51,0.00,,,0.00,weatherlink.com 1.10,2013-02-09 15:37:00,
2013-02-09 10:52:00,40.6,22.0,30.17,South,170,0.0,2.0,47,0.00,,,0.00,weatherlink.com 1.10,2013-02-09 15:52:00,
2013-02-09 11:07:00,41.5,22.0,30.18,South,170,0.0,2.0,46,0.00,,,0.00,weatherlink.com 1.10,2013-02-09 16:07:00,
2013-02-09 11:22:00,42.0,22.0,30.18,South,170,0.0,2.0,45,0.00,,,0.00,weatherlink.com 1.10,2013-02-09 16:22:00,
2013-02-09 11:37:00,43.3,24.0,30.18,South,170,1.0,2.0,46,0.00,,,0.00,weatherlink.com 1.10,2013-02-09 16:37:00,
2013-02-09 11:52:00,43.2,25.0,30.19,South,170,0.0,3.0,49,0.00,,,0.00,weatherlink.com 1.10,2013-02-09 16:52:00,
2013-02-09 12:07:00,44.9,23.0,30.19,South,170,0.0,1.0,43,0.00,,,0.00,weatherlink.com 1.10,2013-02-09 17:07:00,
2013-02-09 12:22:00,45.4,22.0,30.19,South,170,2.0,2.0,40,0.00,,,0.00,weatherlink.com 1.10,2013-02-09 17:22:00,
2013-02-09 12:37:00,46.9,24.0,30.18,South,170,1.0,3.0,41,0.00,,,0.00,weatherlink.com 1.10,2013-02-09 17:37:00,
2013-02-09 12:52:00,47.4,25.0,30.18,South,170,2.0,3.0,41,0.00,,,0.00,weatherlink.com 1.10,2013-02-09 17:52:00,
2013-02-09 13:07:00,49.5,21.0,30.18,South,170,2.0,2.0,33,0.00,,,0.00,weatherlink.com 1.10,2013-02-09 18:07:00,
2013-02-09 13:22:00,50.1,25.0,30.17,South,170,0.0,3.0,37,0.00,,,0.00,weatherlink.com 1.10,2013-02-09 18:22:00,
2013-02-09 13:37:00,50.7,26.0,30.17,South,170,1.0,3.0,38,0.00,,,0.00,weatherlink.com 1.10,2013-02-09 18:37:00,
2013-02-09 13:53:00,50.8,24.0,30.17,South,172,2.0,5.0,35,0.00,,,0.00,weatherlink.com 1.10,2013-02-09 18:53:00,
2013-02-09 14:07:00,51.0,26.0,30.17,South,172,0.0,3.0,38,0.00,,,0.00,weatherlink.com 1.10,2013-02-09 19:07:00,
2013-02-09 14:22:00,52.0,26.0,30.16,South,172,0.0,3.0,37,0.00,,,0.00,weatherlink.com 1.10,2013-02-09 19:22:00,
2013-02-09 14:38:00,51.8,25.0,30.16,South,172,0.0,4.0,35,0.00,,,0.00,weatherlink.com 1.10,2013-02-09 19:38:00,
2013-02-09 14:52:00,52.6,24.0,30.16,South,172,0.0,4.0,33,0.00,,,0.00,weatherlink.com 1.10,2013-02-09 19:52:00,
2013-02-09 15:08:00,52.0,26.0,30.16,South,172,2.0,4.0,36,0.00,,,0.00,weatherlink.com 1.10,2013-02-09 20:08:00,
2013-02-09 15:23:00,52.1,25.0,30.16,South,172,0.0,4.0,35,0.00,,,0.00,weatherlink.com 1.10,2013-02-09 20:23:00,
2013-02-09 15:37:00,51.5,24.0,30.16,South,172,1.0,4.0,34,0.00,,,0.00,weatherlink.com 1.10,2013-02-09 20:37:00,
2013-02-09 15:52:00,51.6,24.0,30.16,South,172,0.0,4.0,34,0.00,,,0.00,weatherlink.com 1.10,2013-02-09 20:52:00,
2013-02-09 16:08:00,51.1,24.0,30.15,South,172,0.0,3.0,35,0.00,,,0.00,weatherlink.com 1.10,2013-02-09 21:08:00,
2013-02-09 16:22:00,50.7,26.0,30.16,South,172,0.0,1.0,38,0.00,,,0.00,weatherlink.com 1.10,2013-02-09 21:22:00,
2013-02-09 16:37:00,50.3,25.0,30.16,South,172,0.0,1.0,37,0.00,,,0.00,weatherlink.com 1.10,2013-02-09 21:37:00,
2013-02-09 16:52:00,51.1,25.0,30.16,South,172,0.0,0.0,37,0.00,,,0.00,weatherlink.com 1.10,2013-02-09 21:52:00,
2013-02-09 17:07:00,52.5,25.0,30.17,South,172,0.0,1.0,35,0.00,,,0.00,weatherlink.com 1.10,2013-02-09 22:07:00,
2013-02-09 17:22:00,52.0,25.0,30.16,South,172,0.0,1.0,35,0.00,,,0.00,weatherlink.com 1.10,2013-02-09 22:22:00,
2013-02-09 17:37:00,50.0,23.0,30.16,South,172,0.0,1.0,35,0.00,,,0.00,weatherlink.com 1.10,2013-02-09 22:37:00,
2013-02-09 17:52:00,48.2,24.0,30.17,South,172,0.0,0.0,39,0.00,,,0.00,weatherlink.com 1.10,2013-02-09 22:52:00,
2013-02-09 18:07:00,46.9,23.0,30.17,South,172,0.0,2.0,39,0.00,,,0.00,weatherlink.com 1.10,2013-02-09 23:07:00,
2013-02-09 18:23:00,45.7,24.0,30.18,South,172,0.0,1.0,43,0.00,,,0.00,weatherlink.com 1.10,2013-02-09 23:23:00,
2013-02-09 18:38:00,44.8,23.0,30.18,South,172,1.0,3.0,43,0.00,,,0.00,weatherlink.com 1.10,2013-02-09 23:38:00,
2013-02-09 18:53:00,44.4,22.0,30.19,South,172,2.0,5.0,42,0.00,,,0.00,weatherlink.com 1.10,2013-02-09 23:53:00,
2013-02-09 19:08:00,44.2,22.0,30.18,South,172,4.0,5.0,42,0.00,,,0.00,weatherlink.com 1.10,2013-02-10 00:08:00,
2013-02-09 19:23:00,43.6,21.0,30.19,South,172,3.0,4.0,41,0.00,,,0.00,weatherlink.com 1.10,2013-02-10 00:23:00,
2013-02-09 19:38:00,43.2,21.0,30.19,South,172,2.0,4.0,42,0.00,,,0.00,weatherlink.com 1.10,2013-02-10 00:38:00,
2013-02-09 19:53:00,43.5,21.0,30.20,South,172,2.0,5.0,41,0.00,,,0.00,weatherlink.com 1.10,2013-02-10 00:53:00,
2013-02-09 20:08:00,43.5,20.0,30.20,South,172,2.0,3.0,40,0.00,,,0.00,weatherlink.com 1.10,2013-02-10 01:08:00,
2013-02-09 20:23:00,43.1,21.0,30.20,South,172,1.0,2.0,41,0.00,,,0.00,weatherlink.com 1.10,2013-02-10 01:23:00,
2013-02-09 20:38:00,42.4,22.0,30.21,South,172,0.0,3.0,44,0.00,,,0.00,weatherlink.com 1.10,2013-02-10 01:38:00,
2013-02-09 20:53:00,41.9,21.0,30.21,South,172,0.0,2.0,44,0.00,,,0.00,weatherlink.com 1.10,2013-02-10 01:53:00,
2013-02-09 21:08:00,41.7,21.0,30.21,South,172,1.0,2.0,44,0.00,,,0.00,weatherlink.com 1.10,2013-02-10 02:08:00,
2013-02-09 21:23:00,41.3,21.0,30.22,South,172,0.0,2.0,45,0.00,,,0.00,weatherlink.com 1.10,2013-02-10 02:23:00,
2013-02-09 21:38:00,41.2,21.0,30.22,South,172,1.0,2.0,44,0.00,,,0.00,weatherlink.com 1.10,2013-02-10 02:38:00,
2013-02-09 21:53:00,41.0,20.0,30.22,South,172,0.0,2.0,44,0.00,,,0.00,weatherlink.com 1.10,2013-02-10 02:53:00,
2013-02-09 22:08:00,40.8,21.0,30.22,South,172,1.0,2.0,45,0.00,,,0.00,weatherlink.com 1.10,2013-02-10 03:08:00,
2013-02-09 22:23:00,40.7,21.0,30.22,South,172,1.0,3.0,46,0.00,,,0.00,weatherlink.com 1.10,2013-02-10 03:23:00,
2013-02-09 22:38:00,40.6,22.0,30.21,South,172,0.0,3.0,47,0.00,,,0.00,weatherlink.com 1.10,2013-02-10 03:38:00,
2013-02-09 22:53:00,40.9,21.0,30.22,South,172,0.0,2.0,45,0.00,,,0.00,weatherlink.com 1.10,2013-02-10 03:53:00,
2013-02-09 23:08:00,40.2,21.0,30.22,South,172,1.0,3.0,47,0.00,,,0.00,weatherlink.com 1.10,2013-02-10 04:08:00,
2013-02-09 23:23:00,39.4,21.0,30.22,South,172,0.0,2.0,48,0.00,,,0.00,weatherlink.com 1.10,2013-02-10 04:23:00,
2013-02-09 23:38:00,40.4,21.0,30.22,South,172,1.0,2.0,46,0.00,,,0.00,weatherlink.com 1.10,2013-02-10 04:38:00,
2013-02-09 23:53:00,40.5,21.0,30.22,South,172,1.0,2.0,46,0.00,,,0.00,weatherlink.com 1.10,2013-02-10 04:53:00,